Quillayute, WA

10:00 PM PDT on June 23, 2017 (GMT -0700)
Quillayute

Weather History for KUIL - November, 2013

Change the Weather History Date:

Friday, November 8, 2013

  Actual Average Record
Temperature  
Mean Temperature 51 °F 46 °F  
Max Temperature 57 °F 52 °F 63 °F (2016)
Min Temperature 44 °F 39 °F 28 °F (1979)
Degree Days  
Heating Degree Days 14 19  
Month to date heating degree days 126 150  
Since 1 July heating degree days 805 1240  
Cooling Degree Days 0 0  
Month to date cooling degree days 0 0  
Year to date cooling degree days 39 19  
Moisture  
Dew Point 45 °F    
Average Humidity 82    
Maximum Humidity 93    
Minimum Humidity 71    
Precipitation  
Precipitation 0.03 in 0.50 in 3.59 in (1989)
Month to date precipitation 3.12 3.90  
Year to date precipitation 77.68 74.93  
Sea Level Pressure  
Sea Level Pressure 30.11 in    
Wind  
Wind Speed 3 mph (SW)    
Max Wind Speed 12 mph    
Max Gust Speed 15 mph    
Visibility 6 miles    
Events Rain    
T = Trace of Precipitation, MM = Missing Value Source: NWS Daily Summary

Daily Weather History Graph

Daily Weather History Graph

Search for Another Location

Airport or City:

Trip Planner

Search our weather history database for the weather conditions in past years. The results will help you decide how hot, cold, wet, or windy it might be!

Date:

Astronomy

Nov. 08, 2013 Rise Set
Actual Time 7:14 AM PST 4:49 PM PST
Civil Twilight 6:41 AM PST 5:22 PM PST
Nautical Twilight 6:03 AM PST 5:59 PM PST
Astronomical Twilight 5:27 AM PST 6:35 PM PST
Moon 12:14 PM PST (11/8) 10:18 PM PST (11/8)
Length of Visible Light 10h 41m
Length of Day
9h 34m
Waxing Crescent, 34% of the Moon is Illuminated
Nov 8
Waxing Crescent
Nov 9
First Quarter
Nov 17
Full
Nov 25
Last Quarter
Dec 2
New

Hourly Weather History & Observations

Time (PST) Temp. Windchill Dew Point Humidity Pressure Visibility Wind Dir Wind Speed Gust Speed Precip Events Conditions
12:53 AM 51.1 °F - 46.0 °F 83% 30.05 in 6.0 mi WSW 5.8 mph - N/A   Haze
1:27 AM 51.8 °F - 44.6 °F 76% 30.04 in 6.0 mi SW 3.5 mph - N/A   Haze
1:53 AM 50.0 °F - 45.0 °F 83% 30.05 in 6.0 mi WSW 4.6 mph - N/A   Haze
2:09 AM 50.0 °F - 44.6 °F 82% 30.05 in 6.0 mi WSW 3.5 mph - N/A   Haze
2:53 AM 50.0 °F - 45.0 °F 83% 30.06 in 6.0 mi SSW 4.6 mph - N/A   Haze
3:31 AM 50.0 °F - 44.6 °F 82% 30.06 in 6.0 mi South 3.5 mph - N/A   Haze
3:48 AM 50.0 °F - 46.4 °F 87% 30.06 in 6.0 mi Calm Calm - N/A   Overcast
3:53 AM 50.0 °F - 46.0 °F 86% 30.06 in 6.0 mi Calm Calm - N/A   Overcast
4:02 AM 50.0 °F - 46.4 °F 87% 30.07 in 6.0 mi Calm Calm - N/A   Overcast
4:15 AM 51.8 °F - 46.4 °F 82% 30.07 in 6.0 mi WSW 4.6 mph - N/A   Haze
4:53 AM 50.0 °F - 45.0 °F 83% 30.08 in 6.0 mi WSW 4.6 mph - N/A   Haze
5:53 AM 50.0 °F - 45.0 °F 83% 30.09 in 6.0 mi Calm Calm - N/A   Haze
6:53 AM 48.9 °F - 44.1 °F 83% 30.09 in 6.0 mi Calm Calm - N/A   Haze
7:28 AM 48.2 °F - 44.6 °F 87% 30.10 in 1.8 mi Calm Calm - 0.00 in Rain Heavy Rain
7:37 AM 48.2 °F - 44.6 °F 87% 30.10 in 3.0 mi South 4.6 mph - 0.03 in Rain Light Rain
7:53 AM 50.0 °F - 46.0 °F 86% 30.10 in 4.0 mi SW 3.5 mph - 0.03 in   Overcast
8:53 AM 50.0 °F - 46.9 °F 89% 30.12 in 5.0 mi Calm Calm - N/A   Mostly Cloudy
9:53 AM 53.1 °F - 48.0 °F 83% 30.13 in 5.0 mi Calm Calm - N/A   Haze
10:04 AM 53.6 °F - 48.2 °F 82% 30.13 in 5.0 mi Calm Calm - N/A   Overcast
10:17 AM 53.6 °F - 46.4 °F 77% 30.13 in 5.0 mi SW 4.6 mph - N/A   Haze
10:28 AM 53.6 °F - 46.4 °F 77% 30.13 in 6.0 mi SW 5.8 mph - N/A   Haze
10:53 AM 54.0 °F - 46.0 °F 75% 30.13 in 6.0 mi WSW 4.6 mph - N/A   Haze
11:12 AM 53.6 °F - 46.4 °F 77% 30.13 in 5.0 mi SW 3.5 mph - N/A   Haze
11:44 AM 53.6 °F - 46.4 °F 77% 30.13 in 5.0 mi SW 6.9 mph - N/A   Haze
11:53 AM 53.1 °F - 45.0 °F 74% 30.13 in 6.0 mi SW 6.9 mph - N/A   Haze
12:27 PM 55.4 °F - 44.6 °F 67% 30.12 in 6.0 mi WSW 4.6 mph - N/A   Haze
12:53 PM 54.0 °F - 46.0 °F 75% 30.12 in 6.0 mi SW 6.9 mph - N/A   Haze
1:01 PM 53.6 °F - 46.4 °F 77% 30.12 in 6.0 mi SW 6.9 mph - N/A   Haze
1:53 PM 54.0 °F - 45.0 °F 72% 30.12 in 6.0 mi SW 6.9 mph - N/A   Haze
2:23 PM 53.6 °F - 46.4 °F 77% 30.11 in 6.0 mi SSW 4.6 mph - N/A   Haze
2:53 PM 53.1 °F - 46.0 °F 77% 30.12 in 6.0 mi SW 6.9 mph - N/A   Haze
3:53 PM 53.1 °F - 46.0 °F 77% 30.12 in 6.0 mi SW 4.6 mph - N/A   Haze
4:04 PM 51.8 °F - 46.4 °F 82% 30.12 in 6.0 mi SW 3.5 mph - N/A   Haze
4:53 PM 50.0 °F - 46.0 °F 86% 30.12 in 6.0 mi Calm Calm - N/A   Clear
5:53 PM 48.0 °F - 45.0 °F 89% 30.12 in 6.0 mi Calm Calm - N/A   Partly Cloudy
6:53 PM 46.9 °F - 44.1 °F 90% 30.12 in 6.0 mi Calm Calm - N/A   Partly Cloudy
7:24 PM 46.4 °F - 42.8 °F 87% 30.12 in 6.0 mi Calm Calm - N/A   Mostly Cloudy
7:53 PM 45.0 °F - 42.1 °F 90% 30.13 in 6.0 mi Calm Calm - N/A   Mostly Cloudy
8:25 PM 44.6 °F - 41.0 °F 87% 30.13 in 1.8 mi Calm Calm - N/A   Mostly Cloudy
8:30 PM 44.6 °F - 41.0 °F 87% 30.13 in 1.2 mi Calm Calm - N/A   Mostly Cloudy
8:34 PM 44.6 °F - 41.0 °F 87% 30.13 in 2.0 mi Calm Calm - N/A   Mostly Cloudy
8:41 PM 44.6 °F - 41.0 °F 87% 30.13 in 5.0 mi Calm Calm - N/A   Mostly Cloudy
8:53 PM 45.0 °F - 42.1 °F 90% 30.13 in 5.0 mi Calm Calm - N/A   Overcast
9:53 PM 46.0 °F 44.8 °F 42.1 °F 86% 30.14 in 7.0 mi East 3.5 mph - N/A   Overcast
10:53 PM 46.0 °F 43.9 °F 42.1 °F 86% 30.13 in 8.0 mi East 4.6 mph - N/A   Overcast
11:53 PM 45.0 °F - 41.0 °F 86% 30.12 in 8.0 mi Calm Calm - N/A   Overcast